COSMOS 252 DEB, 3843

Orbit data source: Space-Track

COSMOS 252 DEB, 3843 is space debris in LEO originally from a launch on Fri, 01 Nov 1968 UTC launched from the Tyuratam Missile And Space Complex (TTMTR). Debris objects in space refer to the collection of defunct objects orbiting the Earth. Examples of debris include non-operational satellites, rocket bodies, and fragments generated from explosions, collisions, or faulty payload assembly.

Loading next visibility...
Identifier
3843, 1968-097BG
Orbit
LEO
Country
Flag of CISCIS
Related business
Manufacturer
Unknown
Mission
Spacecraft
Bus & Motor
Unknown
Mass
Unknown
Launch date (UTC)
1968-11-01 (57 years ago)
Launch vehicle
Unknown
Launch site
Tyuratam Missile And Space Complex (TTMTR)
Object type
Payload
Rocket body
Debris
Shape & HBR
Unknown shape, 0.1 m
Radar Cross Section
Small (<0.1 m²)

Expand to show TLE details & history
Last TLE update: 18 hours ago

TLE from 18 hours ago
0 COSMOS 252 DEB
1 03843U 68097BG  26121.54750426  .00000644  00000-0  70749-3 0  9997
2 03843  62.2624 215.1517 0695177  99.5338 268.4861 13.04290731661239
Epoch: 2026-05-01T13:08Z
TLE epoch observation values (Epoch: 2026-05-01T13:08:24.368Z)
Latitude
-0.00001°
Longitude
158.57197°
Altitude
1,297.579 km
Speed
7.184 km/s
True Right ascension
14h 20m 36s
True Declination
0° 00' 00"
Sunlit
Object was in full shadow at epoch
Visualization orbit readout
Latitude
Unknown
Longitude
Unknown
Altitude
Unknown
Speed
Unknown
Apparent Right ascension
Unknown
Apparent Declination
Unknown
Sunlit
N/A
Visualization observer readout
Local Sidereal Time
14:39:31
Azimuth
Unknown
Elevation
Unknown
Doppler factor
Unknown
Orbital elements
Apogee altitude
1,774.206 km
Perigee altitude
714.416 km
Semi-major axis
7,622.448 km
Eccentricity
0.06952
Inclination
62.2624°
RAAN
215.1517°
Arg. of periapsis
99.5338°
True anomaly
260.56627°
Mean anomaly
268.4861°
Eccentric anomaly
264.52123°
Mean motion
3.26138 °/min
Orbital period
110.38 mins
BSTAR
0.00070749
Loading maneuver chart data...
Computing Atmospheric mass density...

Documentation

Showing up to 5 results
|